TimeCDT,TemperatureF,Dew PointF,Humidity,Sea Level PressureIn,VisibilityMPH,Wind Direction,Wind SpeedMPH,Gust SpeedMPH,PrecipitationIn,Events,Conditions,WindDirDegrees,DateUTC
12:16 AM,56.5,55.9,98,29.91,4.0,ESE,4.6,-,0.01,,Drizzle,120,2013-09-15 05:16:00
12:36 AM,56.7,56.3,99,29.91,5.0,ESE,3.5,-,0.01,,Overcast,120,2013-09-15 05:36:00
12:56 AM,56.8,56.3,98,29.91,7.0,Calm,Calm,-,0.01,,Overcast,0,2013-09-15 05:56:00
1:16 AM,56.8,56.3,98,29.90,5.0,East,5.8,-,N/A,Rain,Light Rain,90,2013-09-15 06:16:00
1:36 AM,57.2,56.5,97,29.90,5.0,ESE,3.5,-,0.02,Rain,Rain,110,2013-09-15 06:36:00
1:56 AM,57.0,56.5,98,29.90,5.0,Calm,Calm,-,0.03,Rain,Light Rain,0,2013-09-15 06:56:00
2:16 AM,57.2,56.5,97,29.90,5.0,ENE,3.5,-,0.02,Rain,Light Rain,70,2013-09-15 07:16:00
2:36 AM,56.7,56.3,99,29.91,3.0,NE,3.5,-,0.04,Rain,Rain,40,2013-09-15 07:36:00
2:56 AM,56.7,56.3,99,29.93,4.0,North,3.5,-,0.06,Rain,Rain,10,2013-09-15 07:56:00
3:15 AM,56.8,56.5,99,29.92,3.0,NNE,3.5,-,0.01,Rain,Rain,30,2013-09-15 08:15:00
3:36 AM,56.7,56.3,99,29.92,3.0,NNE,3.5,-,0.04,Rain,Rain,20,2013-09-15 08:36:00
3:56 AM,56.5,56.3,99,29.93,4.0,North,5.8,-,0.06,Rain,Light Rain,10,2013-09-15 08:56:00
4:16 AM,56.5,56.3,99,29.94,7.0,NNE,4.6,-,0.02,,Light Drizzle,20,2013-09-15 09:16:00
4:36 AM,56.5,56.1,99,29.95,7.0,NNE,3.5,-,0.04,,Overcast,20,2013-09-15 09:36:00
4:56 AM,56.3,55.9,99,29.95,10.0,NNE,4.6,-,0.06,,Overcast,20,2013-09-15 09:56:00
5:16 AM,56.5,56.1,99,29.97,10.0,North,3.5,-,0.02,,Overcast,10,2013-09-15 10:16:00
5:36 AM,56.5,56.3,99,29.97,10.0,NNE,3.5,-,0.03,,Overcast,30,2013-09-15 10:36:00
5:56 AM,56.3,55.9,99,29.97,10.0,North,4.6,-,0.05,,Overcast,10,2013-09-15 10:56:00
6:16 AM,56.3,55.9,99,29.98,7.0,NNE,4.6,-,0.01,,Overcast,30,2013-09-15 11:16:00
6:36 AM,56.3,55.9,99,29.99,10.0,NNE,4.6,-,0.02,,Overcast,30,2013-09-15 11:36:00
6:56 AM,56.3,55.9,99,30.00,10.0,North,4.6,-,0.03,,Overcast,10,2013-09-15 11:56:00
7:16 AM,56.3,55.9,99,30.01,10.0,North,5.8,-,0.01,,Overcast,360,2013-09-15 12:16:00
7:36 AM,56.5,55.9,98,30.02,10.0,North,8.1,-,0.01,,Overcast,360,2013-09-15 12:36:00
7:56 AM,56.3,55.8,98,30.03,10.0,North,8.1,-,0.02,,Overcast,360,2013-09-15 12:56:00
8:16 AM,56.5,55.8,97,30.04,10.0,North,6.9,-,N/A,,Overcast,360,2013-09-15 13:16:00
8:35 AM,57.7,57.0,97,30.05,10.0,North,9.2,-,N/A,,Mostly Cloudy,360,2013-09-15 13:35:00
8:56 AM,58.1,56.8,96,30.05,10.0,North,6.9,-,N/A,,Overcast,360,2013-09-15 13:56:00
9:16 AM,57.9,56.1,94,30.07,10.0,North,9.2,-,N/A,,Overcast,360,2013-09-15 14:16:00
9:35 AM,58.1,56.3,94,30.08,10.0,North,6.9,-,N/A,,Overcast,10,2013-09-15 14:35:00
9:56 AM,59.0,56.3,91,30.09,10.0,North,5.8,-,N/A,,Overcast,10,2013-09-15 14:56:00
10:16 AM,59.4,56.5,90,30.10,10.0,North,6.9,-,N/A,,Overcast,10,2013-09-15 15:16:00
10:36 AM,59.9,56.3,88,30.10,10.0,NNE,5.8,-,N/A,,Overcast,20,2013-09-15 15:36:00
10:55 AM,60.8,56.5,86,30.11,10.0,North,5.8,-,N/A,,Overcast,10,2013-09-15 15:55:00
11:16 AM,60.1,56.3,87,30.13,10.0,North,6.9,-,N/A,,Overcast,10,2013-09-15 16:16:00
11:36 AM,60.3,57.0,89,30.14,10.0,NNE,6.9,-,N/A,,Overcast,30,2013-09-15 16:36:00
11:56 AM,60.8,56.7,86,30.14,10.0,NE,4.6,-,N/A,,Overcast,40,2013-09-15 16:56:00
12:16 PM,60.6,56.5,86,30.15,10.0,NNE,10.4,-,N/A,,Overcast,20,2013-09-15 17:16:00
12:36 PM,62.2,55.9,80,30.16,10.0,NNE,11.5,16.1,N/A,,Overcast,20,2013-09-15 17:36:00
12:56 PM,63.7,55.4,74,30.16,10.0,NNE,8.1,-,N/A,,Overcast,30,2013-09-15 17:56:00
1:16 PM,62.2,55.9,80,30.17,10.0,North,9.2,-,N/A,,Overcast,10,2013-09-15 18:16:00
1:36 PM,63.0,55.9,78,30.17,10.0,North,10.4,-,N/A,,Overcast,360,2013-09-15 18:36:00
1:56 PM,64.9,53.2,66,30.18,10.0,North,9.2,16.1,N/A,,Mostly Cloudy,10,2013-09-15 18:56:00
2:16 PM,64.6,54.3,69,30.19,10.0,North,6.9,-,N/A,,Overcast,10,2013-09-15 19:16:00
2:36 PM,64.6,54.5,70,30.19,10.0,North,6.9,-,N/A,,Mostly Cloudy,360,2013-09-15 19:36:00
2:56 PM,64.2,54.3,70,30.19,10.0,North,8.1,-,N/A,,Overcast,350,2013-09-15 19:56:00
3:16 PM,66.0,54.7,67,30.20,10.0,NNW,9.2,-,N/A,,Mostly Cloudy,340,2013-09-15 20:16:00
3:33 PM,65.5,55.2,69,30.20,10.0,North,8.1,-,N/A,,Mostly Cloudy,10,2013-09-15 20:33:00
3:56 PM,66.2,54.1,65,30.20,10.0,North,6.9,-,N/A,,Mostly Cloudy,350,2013-09-15 20:56:00
4:16 PM,65.1,55.2,70,30.20,10.0,North,9.2,-,N/A,,Mostly Cloudy,360,2013-09-15 21:16:00
4:36 PM,66.4,55.6,68,30.21,10.0,North,12.7,19.6,N/A,,Mostly Cloudy,350,2013-09-15 21:36:00
4:56 PM,65.7,54.5,67,30.21,10.0,North,11.5,16.1,N/A,,Mostly Cloudy,350,2013-09-15 21:56:00
5:16 PM,63.5,54.7,73,30.22,10.0,North,6.9,-,N/A,,Mostly Cloudy,350,2013-09-15 22:16:00
5:36 PM,64.4,54.3,70,30.23,10.0,North,9.2,-,N/A,,Mostly Cloudy,10,2013-09-15 22:36:00
5:56 PM,63.7,53.8,70,30.23,10.0,North,9.2,-,N/A,,Mostly Cloudy,350,2013-09-15 22:56:00
6:16 PM,63.9,53.6,69,30.24,10.0,North,8.1,-,N/A,,Mostly Cloudy,10,2013-09-15 23:16:00
6:36 PM,63.1,53.6,71,30.25,10.0,NNE,9.2,-,N/A,,Scattered Clouds,20,2013-09-15 23:36:00
6:56 PM,61.0,52.9,75,30.25,10.0,North,5.8,-,N/A,,Scattered Clouds,10,2013-09-15 23:56:00
7:16 PM,60.3,53.1,77,30.26,10.0,North,4.6,-,N/A,,Scattered Clouds,360,2013-09-16 00:16:00
7:36 PM,59.9,53.2,79,30.26,10.0,North,4.6,-,N/A,,Mostly Cloudy,10,2013-09-16 00:36:00
7:55 PM,58.8,52.7,80,30.27,10.0,NNE,3.5,-,N/A,,Mostly Cloudy,20,2013-09-16 00:55:00
8:16 PM,56.8,52.7,86,30.28,10.0,North,3.5,-,N/A,,Scattered Clouds,10,2013-09-16 01:16:00
8:36 PM,56.7,52.9,87,30.28,10.0,Calm,Calm,-,N/A,,Mostly Cloudy,0,2013-09-16 01:36:00
8:56 PM,56.3,52.3,87,30.30,10.0,Calm,Calm,-,N/A,,Mostly Cloudy,0,2013-09-16 01:56:00
9:16 PM,54.7,51.8,90,30.30,10.0,Calm,Calm,-,N/A,,Scattered Clouds,0,2013-09-16 02:16:00
9:36 PM,52.5,50.2,92,30.31,10.0,Calm,Calm,-,N/A,,Clear,0,2013-09-16 02:36:00
9:56 PM,51.8,50.4,95,30.31,10.0,Calm,Calm,-,N/A,,Clear,0,2013-09-16 02:56:00
10:16 PM,51.4,50.0,95,30.32,10.0,Calm,Calm,-,N/A,,Clear,0,2013-09-16 03:16:00
10:36 PM,50.9,49.6,95,30.32,10.0,Calm,Calm,-,N/A,,Clear,0,2013-09-16 03:36:00
10:56 PM,49.5,48.6,97,30.33,10.0,Calm,Calm,-,N/A,,Clear,0,2013-09-16 03:56:00
11:15 PM,49.1,48.2,97,30.33,10.0,Calm,Calm,-,N/A,,Clear,0,2013-09-16 04:15:00
11:36 PM,49.3,48.0,95,30.34,10.0,ENE,3.5,-,N/A,,Clear,70,2013-09-16 04:36:00
11:56 PM,48.9,47.1,93,30.34,10.0,Calm,Calm,-,N/A,,Clear,0,2013-09-16 04:56:00